Home > Time Zones > World Clock > Weather > Italy > Milan > Past weeks

Flag for Italy Weather past 2 weeks in Milan, Italy

Now
73 °F

Passing clouds.


Feels Like: 74 °F
Forecast: 65 / 80 °F
Wind: 5 mph from East

Location: Milan / Linate

Current Time: Jul 30, 2015 at 2:26:06 AM

Latest Report: Jul 30, 2015 at 1:50 AM


Visibility: N/A

Pressure: 29.74 "Hg

Humidity: 78%

Dew point: 66 °F

Location of MilanLocation

Historic Weather in Milan — Graph

°F

Milan temperature yesterday

Maximum temperature yesterday: 90 °F (at 4:50 PM)
Minimum temperature yesterday: 73 °F (at 3:20 AM)
Average temperature yesterday: 80 °F

Past Weeks' High & Low Weather Summary

 TemperatureHumidityPressure
High99 °F (Jul 22, 3:50 PM)94% (Jul 25, 3:20 AM)30.07 "Hg (Jul 25, 3:20 AM)
Low68 °F (Jul 25, 3:20 AM)26% (Jul 23, 6:50 PM)29.62 "Hg (Jul 27, 4:50 PM)
Average84 °F54%29.87 "Hg
* Reported Jul 15 12:20 AM — Jul 30 12:50 AM, Milan, Weather by CustomWeather, © 2015

Note: Actual official high and low records may vary slightly from our data, if they occured in-between our weather recording intervals... More about our weather records

Advertising

Milan weather history for previous 24 hours

 ConditionsComfort  
Time TempWeatherWind HumidityBarometerVisibility
12:50 AM
Thu, Jul 30
75 °FPassing clouds.3 mph74%29.74 "HgN/A
12:20 AM77 °FPassing clouds.3 mph65%29.74 "HgN/A
11:50 PM
Wed, Jul 29
77 °FPassing clouds.1 mph69%29.74 "HgN/A
11:20 PM77 °FPassing clouds.1 mph69%29.71 "HgN/A
10:50 PM77 °FPassing clouds.1 mph69%29.71 "HgN/A
10:20 PM77 °FPassing clouds.2 mph69%29.71 "HgN/A
9:50 PM79 °FPassing clouds.2 mph61%29.71 "HgN/A
9:20 PM79 °FPassing clouds.2 mph65%29.71 "HgN/A
8:50 PM79 °FPassing clouds.2 mph61%29.68 "HgN/A
8:20 PM81 °FPassing clouds.3 mph62%29.68 "HgN/A
7:50 PM81 °FScattered showers. Scattered clouds.5 mph58%29.68 "HgN/A
7:20 PM84 °FScattered clouds.12 mph48%29.68 "HgN/A
6:50 PM82 °FPartly sunny.14 mph51%29.68 "HgN/A
6:20 PM84 °FPartly sunny.14 mph51%29.68 "HgN/A
5:50 PM88 °FPartly sunny.8 mph43%29.68 "HgN/A
5:20 PM88 °FScattered clouds.7 mph43%29.68 "HgN/A
4:50 PM90 °FScattered clouds.3 mph41%29.68 "HgN/A
4:20 PM88 °FScattered clouds.6 mph43%29.68 "HgN/A
3:50 PM88 °FPassing clouds.3 mph40%29.68 "HgN/A
3:20 PM88 °FScattered clouds.6 mph43%29.68 "HgN/A
2:50 PM86 °FScattered clouds.7 mph46%29.68 "HgN/A
2:20 PM86 °FScattered clouds.3 mph46%29.71 "HgN/A
1:50 PM86 °FScattered clouds.8 mph46%29.71 "HgN/A
1:20 PM84 °FScattered clouds.6 mph48%29.71 "HgN/A
12:50 PM84 °FPassing clouds.6 mph48%29.74 "HgN/A
12:20 PM84 °FPassing clouds.3 mph48%29.74 "HgN/A
11:50 AM81 °FPassing clouds.6 mph54%29.74 "HgN/A
11:20 AM81 °FPassing clouds.6 mph54%29.74 "HgN/A
10:50 AM81 °FPassing clouds.5 mph54%29.74 "HgN/A
10:20 AM79 °FPassing clouds.6 mph58%29.74 "HgN/A
9:50 AM79 °FPassing clouds.6 mph58%29.74 "HgN/A
9:20 AM77 °FPassing clouds.3 mph65%29.74 "HgN/A
8:50 AM77 °FPassing clouds.3 mph65%29.74 "HgN/A
8:20 AM75 °FPassing clouds.5 mph69%29.74 "HgN/A
7:50 AM75 °FPassing clouds.5 mph69%29.74 "HgN/A
7:20 AM73 °FPassing clouds.6 mph74%29.74 "HgN/A
6:50 AM73 °FPassing clouds.6 mph74%29.74 "HgN/A
6:20 AM73 °FPassing clouds.5 mph74%29.74 "HgN/A
5:50 AM73 °FPassing clouds.3 mph78%29.74 "HgN/A
4:50 AM73 °FClear.1 mph78%29.71 "Hg10 mi
4:20 AM75 °FClear.2 mph69%29.71 "Hg10 mi
3:50 AM75 °FClear.2 mph69%29.71 "Hg10 mi
3:20 AM73 °FPassing clouds.3 mph74%29.71 "HgN/A
2:50 AM75 °FPassing clouds.3 mph69%29.71 "HgN/A
2:20 AM75 °FPassing clouds.5 mph65%29.74 "HgN/A
Weather by CustomWeather, © 2015

See weather overviewHow to use our weather pages